GW6128 Weather Reports


time (UTC)temp
C
wind
direction
speed
KPH
gust
KPH
rain 1hr
cm
rain 24hr
cm
rain mn
cm
humidity
%
barometer
mb
20260507223050 9 0 0.0 1.6 0.00 0.00 0.00 88 1015.5
20260507221547 10 0 0.0 1.6 0.00 0.00 0.00 87 1015.5
20260507220051 10 143 0.0 3.2 0.00 0.00 0.00 86 1015.5
20260507214551 10 159 1.6 6.4 0.00 0.00 0.00 85 1015.5
20260507213100 10 114 1.6 9.7 0.00 0.00 0.00 85 1015.5
20260507211557 11 92 3.2 9.7 0.00 0.00 0.00 83 1015.5
20260507210053 11 96 0.0 11.3 0.00 0.00 0.00 83 1015.4
20260507204556 11 99 3.2 11.3 0.00 0.00 0.00 83 1015.4
20260507203058 11 0 0.0 4.8 0.00 0.00 0.00 83 1015.3
20260507201601 11 127 1.6 9.7 0.00 0.00 0.00 84 1015.3
20260507200057 11 113 3.2 9.7 0.00 0.00 0.00 83 1015.0
20260507194558 11 68 3.2 8.0 0.00 0.00 0.00 83 1014.9
20260507193056 11 55 1.6 9.7 0.00 0.00 0.00 82 1014.9
20260507191615 11 66 3.2 8.0 0.00 0.00 0.00 83 1014.8
20260507190052 11 51 1.6 9.7 0.00 0.00 0.00 82 1014.7
20260507184558 11 72 3.2 9.7 0.00 0.00 0.00 82 1014.8
20260507183053 11 65 3.2 11.3 0.00 0.00 0.00 81 1014.7
20260507181552 11 69 3.2 11.3 0.00 0.00 0.00 81 1014.7
20260507180051 11 57 4.8 17.7 0.00 0.00 0.00 81 1014.6
20260507174553 12 128 4.8 14.5 0.00 0.00 0.00 80 1014.6
20260507173054 12 106 6.4 14.5 0.00 0.00 0.00 80 1014.6
20260507171553 12 55 8.0 16.1 0.00 0.00 0.00 79 1014.5
20260507170055 12 68 3.2 16.1 0.00 0.00 0.00 78 1014.5
20260507164605 12 110 4.8 14.5 0.00 0.00 0.00 76 1014.6
20260507163050 12 70 4.8 12.9 0.00 0.00 0.00 74 1014.6
20260507161557 12 57 4.8 16.1 0.00 0.00 0.00 73 1014.7
20260507160048 12 145 4.8 16.1 0.00 0.00 0.00 74 1014.6
20260507154548 12 75 6.4 17.7 0.00 0.00 0.00 71 1014.7
20260507153050 13 65 4.8 12.9 0.00 0.00 0.00 70 1014.7
20260507151555 12 86 8.0 16.1 0.00 0.00 0.00 72 1014.6
20260507150057 12 68 8.0 19.3 0.00 0.00 0.00 72 1014.6
20260507144549 12 70 9.7 20.9 0.00 0.00 0.00 72 1014.7
20260507143106 12 80 6.4 16.1 0.00 0.00 0.00 72 1014.9
20260507141604 12 72 8.0 16.1 0.00 0.00 0.00 72 1015.0
20260507140052 12 105 4.8 14.5 0.00 0.00 0.00 71 1015.1
20260507134551 12 105 4.8 11.3 0.00 0.00 0.00 70 1015.0
20260507133051 12 131 3.2 12.9 0.00 0.00 0.00 68 1015.0
20260507131600 12 166 3.2 9.7 0.00 0.00 0.00 67 1015.0
20260507130053 12 137 3.2 9.7 0.00 0.00 0.00 68 1015.0
20260507124546 12 128 1.6 11.3 0.00 0.00 0.00 69 1015.1
20260507123104 12 72 3.2 11.3 0.00 0.00 0.00 71 1015.1
20260507121549 12 58 6.4 12.9 0.00 0.00 0.00 70 1015.1
20260507120051 12 57 8.0 14.5 0.00 0.00 0.00 71 1015.1
20260507114552 12 105 3.2 11.3 0.00 0.00 0.00 71 1015.1
20260507113047 12 59 3.2 14.5 0.00 0.00 0.00 71 1015.1
20260507111547 12 95 4.8 12.9 0.00 0.00 0.00 70 1015.1
20260507110052 12 85 3.2 9.7 0.00 0.00 0.00 70 1015.2
20260507104557 13 110 3.2 11.3 0.00 0.00 0.00 69 1015.3
20260507103045 13 95 3.2 14.5 0.00 0.00 0.00 69 1015.2
20260507101548 13 118 4.8 12.9 0.00 0.00 0.00 69 1015.2
20260507100059 12 68 1.6 9.7 0.00 0.00 0.00 72 1015.2
20260507094557 12 68 3.2 8.0 0.00 0.00 0.00 73 1015.2
20260507093051 12 46 0.0 8.0 0.00 0.00 0.00 73 1015.1
20260507091557 12 44 3.2 9.7 0.00 0.00 0.00 72 1015.2
20260507084555 11 0 1.6 6.4 0.00 0.00 0.00 75 1015.1
20260507083058 11 70 3.2 8.0 0.00 0.00 0.00 74 1015.0
20260507081602 11 59 1.6 6.4 0.00 0.00 0.00 77 1015.0
20260507074549 10 65 4.8 8.0 0.00 0.00 0.00 81 1015.0
20260507073049 10 72 1.6 8.0 0.00 0.00 0.00 83 1015.0
20260507071548 10 46 3.2 8.0 0.00 0.00 0.00 84 1014.9
20260507070103 9 69 3.2 8.0 0.00 0.00 0.00 85 1014.9
20260507064626 9 75 3.2 9.7 0.00 0.00 0.00 85 1014.8
20260507063058 8 80 1.6 8.0 0.00 0.00 0.00 86 1014.8
20260507061552 8 77 3.2 8.0 0.00 0.00 0.00 86 1014.6
20260507060111 8 61 3.2 9.7 0.00 0.00 0.00 87 1014.6
20260507054609 8 68 3.2 9.7 0.00 0.00 0.00 87 1014.5
20260507053051 8 75 3.2 8.0 0.00 0.00 0.00 87 1014.3
20260507051604 8 50 1.6 8.0 0.00 0.00 0.00 87 1014.3
20260507050055 8 87 1.6 6.4 0.00 0.00 0.00 87 1014.1
20260507044550 8 29 1.6 4.8 0.00 0.00 0.00 87 1014.1
20260507043056 7 0 0.0 3.2 0.00 0.00 0.00 87 1014.0
20260507041547 8 0 0.0 4.8 0.00 0.00 0.00 87 1014.0
20260507040049 8 69 0.0 6.4 0.00 0.00 0.00 87 1013.8
20260507034551 8 38 1.6 4.8 0.00 0.00 0.00 87 1014.0
20260507033050 8 75 1.6 4.8 0.00 0.00 0.00 87 1013.9
20260507031548 8 0 0.0 1.6 0.00 0.00 0.00 87 1013.9
20260507030053 8 0 0.0 0.0 0.00 0.00 0.00 87 1013.9
20260507024555 8 0 0.0 6.4 0.00 0.00 0.00 87 1013.9
20260507023051 8 0 1.6 4.8 0.00 0.00 0.00 87 1013.8
20260507021553 8 0 0.0 0.0 0.00 0.00 0.00 87 1013.7
20260507020108 8 0 0.0 6.4 0.00 0.00 0.00 87 1013.7
20260507014556 8 80 1.6 4.8 0.00 0.00 0.00 86 1013.6
20260507013047 8 77 1.6 6.4 0.00 0.00 0.00 86 1013.6
20260507011547 8 64 1.6 6.4 0.00 0.00 0.00 86 1013.6
20260507010059 8 94 1.6 6.4 0.00 0.00 0.00 86 1013.6
20260507004551 8 79 1.6 3.2 0.00 0.00 0.00 86 1013.6
20260507003050 9 82 1.6 4.8 0.00 0.00 0.00 85 1013.6
20260507001557 9 65 1.6 4.8 0.00 0.00 0.00 85 1013.6
20260507000048 9 0 3.2 8.0 0.00 0.00 0.00 85 1013.7
20260506234558 9 70 3.2 6.4 0.00 0.00 0.00 85 1013.6
20260506233052 9 80 1.6 4.8 0.00 0.00 0.00 85 1013.6
20260506231607 9 95 1.6 6.4 0.00 0.00 0.00 85 1013.6
20260506230109 9 67 0.0 4.8 0.00 0.00 0.00 85 1013.6
20260506224553 9 50 1.6 8.0 0.00 0.00 0.00 85 1013.6